Weather in Kandersteg

Switzerland     46°29′54″N   7°40′19″E
temp.,
°C
wind,
m/s
gust,
m/s
humid.,
%
clouds,
%
prec.,
mm/h
press.,
hPa
HPBL,
m
20 january, wed
wed2001:00−6sse3347100 0.0 102027
04:00−6sse434699 0.0 101834
07:00−5sse4443100 0.0 101837
10:00−4sse546075 0.0 101765
13:00−3sse557187 0.0 1015131
16:00−6sse657991 0.0 1013110
19:00−9se758196 0.0 101391
22:00−8se7681100 0.0 1013127
21 january, thu
thu2101:00−8se658295 0.0 1012112
04:00−7se6680100 0.0 1011106
07:00−7se657985 0.0 1011102
10:00−5sse668250 0.0 1010169
13:00−2sse558327 0.0 1009237
16:00−3sse558498 0.0 1007135
19:00−6sse558398 0.0 100791
22:00−4se5483100 0.0 100691
22 january, fri
fri2201:00−5sse4488100 0.3 100579
04:00−4s3385100 0.5 100345
07:00−5sse2293100 2.3 100368
10:00−4sse458669 0.3 1000165
13:00−1sse458265 0.3 997324
16:00−3se448663 0.0 99499
19:00−5s229181 0.3 99333
22:00−5nw3398100 4.3 995118
23 january, sat
sat2301:00−8nw3398100 7.6 999170
04:00−11wnw0294100 0.2 99922
07:00−12sse0179100 0.2 100021
10:00−8sse1180100 0.0 99930
13:00−6wnw2274100 0.0 997466
16:00−7wnw2295100 0.7 998261
19:00−10nw2298100 1.7 100161
22:00−9wsw2397100 3.3 100396
24 january, sun
sun2401:00−11wsw1297100 4.8 100441
04:00−15sse129591 0.7 100525
07:00−14sse119394 0.8 100621
10:00−10wsw1190100 0.0 100556
13:00−8w228697 0.0 1004514
16:00−9wsw2293100 0.1 1004261
19:00−11s2292100 0.3 100742
22:00−12nnw2297100 5.0 1008101